{"data":{"norad_id":66484,"epoch":"2026-05-24T14:48:43.600320Z","epoch_age_seconds":108275,"freshness":"FRESH","line1":"1 66484U 25262AE  26144.61717130  .00015598  00000+0  57483-3 0  9995","line2":"2 66484  43.0019 227.7892 0001567 269.2443  90.8229 15.27597272 30519","mean_motion":15.27597272,"eccentricity":0.0001567,"inclination_deg":43.0019,"raan_deg":227.7892,"arg_perigee_deg":269.2443,"mean_anomaly_deg":90.8229,"bstar":0.00057483,"rev_number":3051,"period_min":94.265682872992,"perigee_km":481.92223818836,"apogee_km":484.07251770241,"semimajor_km":6861.1343779454,"source":"CELESTRAK","updated_at":"2026-05-25T13:38:21.241166Z"}}